www.pogodaiklimat.ru

Погода и климат >> Архив погоды >> Индонезия >> Серуи


ПОГОДА в Серуи

  • Прогноз погоды в Серуи
  • Монитор погоды в Серуи

АРХИВ ПОГОДЫ в Серуи

Время (UTC), дата Ветер
(напр.,м/с)
 
Видим.   Явления Облачность Т
(С)
Тd
(С)
f
(%)
Тe
(С)
Тes
(С)
Комфортность P
(гПа)
Po
(гПа)
Тmin
(С)
Tmax
(С)
R
(мм)
R24
(мм)
S
(см)
15 9.06 штиль 0 н/о слаб. дождь {туман} 10/5
[Cb cap Ac As]
+26.8 +25.3 92 +39 +39 очень
душно
1008.6 1008.2 0.5
18 9.06 штиль 0 н/о зарница {дождь, туман} 9/4
[Cb cap Ac As]
+25.8 +24.5 93 +36 +36 очень
душно
1006.7 1006.4 0.0
21 9.06 штиль 0 8000 м слаб. дождь 10/3
[Cu hum As op]
+25.7 +24.6 94 +36 +36 очень
душно
1007.6 1007.3 0.0
00 10.06 штиль 0 8000 м в посл. час дождь 10/3
[Cu hum As op]
+26.6 +25.5 94 +39 +41 очень
душно
1008.7 1008.4 +24.5 1
03 10.06 ЮВ 4 8000 м 9/4
[Cb cap As op]
+30.2 +25.1 74 +44 +46 опасность
перегрева
1007.6 1007.2
06 10.06 штиль 0 8000 м 10/4
[Cu Sc As op]
+28.0 +25.2 85 +41 +42 опасность
перегрева
1006.1 1005.8 4
09 10.06 штиль 0 6000 м слаб. дождь 10/4
[Cb cap As op]
+27.0 +25.5 92 +40 +40 очень
душно
1008.3 1008.0 4
12 10.06 штиль 0 6000 м зарница 9/4
[Cb cap Ac As]
+26.0 +24.8 93 +37 +37 очень
душно
1009.8 1009.4 +30.2 0.0
15 10.06 штиль 0 5000 м зарница 9/4
[Cb cap Ac As]
+25.6 +24.4 93 +36 +36 очень
душно
1009.5 1009.1
18 10.06 С 2 н/о зарница 9/4
[Cb cap Ac As]
+25.4 +24.2 93 +35 +35 очень
душно
1008.0 1007.6
21 10.06 штиль 0 8000 м зарница 9/4
[Cb cap Ac trans Ci fib]
+24.8 +23.8 94 +34 +34 очень
душно
1008.7 1008.4
00 11.06 штиль 0 9000 м мгла 9/3 360 м
[Cu hum Ac trans Ci fib]
+28.1 +25.6 86 +41 +46 опасность
перегрева
1010.1 1009.8 +23.7
09 11.06 штиль 0 10 км 9/3 360 м
[Cu med, cong Ac trans Ci fib]
+29.3 +25.9 82 +44 +44 опасность
перегрева
1007.5 1007.2
12 11.06 С 2 6000 м зарница 9/4
[Cb cap Ac trans Cc]
+26.6 +24.2 87 +37 +37 очень
душно
1010.1 1009.8 +30.0
15 11.06 штиль 0 5000 м зарница {гроза} 9/4
[Cb cap Ac As]
+26.2 +24.7 91 +37 +37 очень
душно
1009.9 1009.5
18 11.06 штиль 0 н/о 10/4
[Cb cap As op]
+26.0 +24.8 93 +37 +37 очень
душно
1009.5 1009.1 0.0
21 11.06 штиль 0 8000 м гроза, ливневой дождь 10/4
[Cb cap As op Ci fib]
+25.4 +24.3 94 +35 +35 очень
душно
1010.5 1010.2 3
00 12.06 штиль 0 9000 м в посл. час дождь 9/4 360 м
[Cu Sc As op]
+27.1 +25.0 88 +39 +41 очень
душно
1011.6 1011.2 +24.5 4
03 12.06 З 3 9000 м мгла {туман} 9/4 360 м
[Cu Sc As op]
+29.4 +24 +28 комфорт 1010.4 1010.0
06 12.06 Ю 2 8000 м {туман} 9/5
[Cu Sc Ac As]
+29.8 +25.2 76 +43 +45 опасность
перегрева
1007.8 1007.4
09 12.06 В 2 8000 м 9/1 360 м
[Cu hum Ac trans]
+28.8 +24.4 77 +40 +40 очень
душно
1008.6 1018.2
12 12.06 штиль 0 6000 м зарница 9/4
[Cb cap Ac trans]
+27.2 +24.8 87 +39 +39 очень
душно
1009.9 1009.6 +30.0
15 12.06 штиль 0 5000 м в посл. час дождь 10/4
[Cb cap As op]
+26.2 +24.1 88 +36 +36 очень
душно
1009.8 1009.5
18 12.06 штиль 0 н/о слаб. дождь {гроза} 10/5
[Cb cap As op]
+25.8 +24.3 91 +36 +36 очень
душно
1008.3 1008.0 0.0
21 12.06 штиль 0 8000 м мгла {дождь} 8/3 400 м
[Cu hum Ac trans Ci fib]
+25.6 +24.4 93 +36 +36 очень
душно
1009.1 1008.8 0.0
00 13.06 ЮВ 3 8000 м мгла {туман} 9/3 400 м
[Cu hum Ac trans Ci fib]
+28.0 +25.4 86 +41 +44 опасность
перегрева
1010.2 1009.8 +24.0 0.0
03 13.06 Ю 3 10 км 6/1 400 м
[Cu med, cong Ci fib]
+31.9 +25.2 68 +46 +59 опасность
перегрева
1008.1 1007.8
06 13.06 Ю 3 8000 м 9/1 400 м
[Cu hum Ac trans Ci sp]
+32.6 +25.6 67 +48 +51 опасность
перегрева
1006.0 1005.6
09 13.06 штиль 0 8000 м 9/3 400 м
[Cu med, cong Ac trans Ci fib]
+30.4 +25.9 77 +45 +45 опасность
перегрева
1007.1 1006.8
12 13.06 штиль 0 6000 м мгла {туман} 10/3
[Cu hum Ac As]
+28.1 +25.0 83 +40 +40 очень
душно
1008.9 1008.6 +33.0
15 13.06 штиль 0 н/о зарница {туман} 8/4
[Cb cap Ac trans Ci fib]
+26.8 +24.6 88 +38 +38 очень
душно
1008.6 1008.2
18 13.06 штиль 0 5000 м зарница 6/4
[Cb cap Ac trans Cs]
+26.0 +24.2 90 +36 +36 очень
душно
1006.6 1006.2
21 13.06 штиль 0 7000 м зарница 9/4
[Cb cap Ac trans]
+25.8 +24.0 90 +36 +36 очень
душно
1007.6 1007.2
00 14.06 Ю 2 10 км 9/4 360 м
[Cb cap Ac trans Ci fib]
+29.4 +25.7 81 +44 +47 опасность
перегрева
1008.9 1008.6 +25.5
03 14.06 Ю 2 8000 м {дождь} 9/6
[Cb cap Ac trans Ci fib]
+29.9 +25.8 79 +45 +50 опасность
перегрева
1007.3 1007.0 0.0
06 14.06 СВ 5 8000 м {дождь} 9/4 360 м
[Cb cap Ac trans Ci fib]
+29.4 +25.4 79 +43 +45 опасность
перегрева
1005.3 1004.9 3
09 14.06 штиль 0 50 км ?/? +29.0 +25.3 80 +42 +42 опасность
перегрева
1006.4 1006.0
12 14.06 штиль 0 8000 м {дождь} 10/4
[Cb cap Ac As]
+26.6 +25.1 91 +38 +38 очень
душно
1008.4 1008.0 +30.3 9
15 14.06 штиль 0 н/о слаб. ливневой дождь, в посл. час гроза 10/4
[Cb cap Ac As]
+26.2 +24.7 91 +37 +37 очень
душно
1008.5 1008.1 0.0
18 14.06 штиль 0 н/о зарница {туман} 10/4
[Cb cap As op]
+25.8 +24.6 93 +36 +36 очень
душно
1007.2 1006.8 0.0
21 14.06 штиль 0 8000 м зарница {туман} 9/4
[Cb cap Ac As Ci sp]
+25.4 +24.2 93 +35 +35 очень
душно
1008.3 1007.9
00 15.06 ЮЗ 3 7000 м слаб. дождь {туман} 10/5 360 м
[Cb cap As op]
+26.0 +25.1 95 +37 +38 очень
душно
1010.4 1010.1 +23.0 1
03 15.06 штиль 0 6000 м дождь 10/4 300 м
[Frnb Ac As]
+25.0 +24.6 98 +35 +40 очень
душно
1009.1 1008.7 1
06 15.06 Ю 2 8000 м 9/3 400 м
[Cu hum Ac trans Ci fib]
+28.1 +25.6 86 +41 +45 опасность
перегрева
1006.6 1006.3 31
09 15.06 штиль 0 7000 м 9/4 400 м
[Frnb Ac trans Ci fib]
+27.8 +25.2 86 +40 +40 очень
душно
1007.9 1007.5
12 15.06 штиль 0 4000 м в посл. час дождь 10/4
[Cb cap Ac As]
+26.2 +24.7 91 +37 +37 очень
душно
1010.1 1009.7 +28.4 0.2
15 15.06 В 2 1000 м дождь 10/5
[Cb cap As op]
+25.4 +24.4 94 +35 +35 очень
душно
1009.9 1009.6 15
18 15.06 С 2 н/о зарница {дождь} 9/4
[Cb cap Ac As]
+24.8 +24.1 96 +34 +34 очень
душно
1008.4 1008.0 1
21 15.06 штиль 0 8000 м мгла {туман} 9/4
[Cb cap Ac trans Ci sp]
+25.0 +23.3 90 +33 +33 очень
душно
1008.1 1008.1
00 16.06 З 3 10 км мгла {туман} 9/4 360 м
[Cu Sc Ac trans Ci fib]
+26.0 +25.1 95 +37 +40 очень
душно
1009.1 1009.4 +23.0
03 16.06 штиль 0 10 км 9/4 360 м
[Cu Sc Ac trans Ci fib]
+30.2 +24.4 71 +42 +51 опасность
перегрева
1008.6 1008.3
06 16.06 ЮЗ 3 10 км мгла {туман} 9/4 360 м
[Cb cap Ac trans Ci fib]
+29.6 +25.0 76 +42 +45 опасность
перегрева
1006.6 1006.2
09 16.06 штиль 0 8000 м 10/3
[Cu hum Ac As]
+28.5 +25.6 84 +42 +42 опасность
перегрева
1007.7 1007.4
12 16.06 штиль 0 6000 м зарница 9/4
[Cb cap Ac trans Ci sp]
+26.2 +23.8 87 +36 +36 очень
душно
1009.1 1008.7 +30.2

 

Местоположение метеостанции Серуи (Индонезия): широта -1.87 долгота 136.23 высота над уровнем моря 3 м.

В архиве по умолчанию представлена погода в Серуи за последнюю неделю. Архивные данные за месяц целиком и за предыдущие месяцы, начиная с января 2011 года, Вы можете получить, выбрав интересующий диапазон дат из раскрывающегося списка и нажав кнопку "Ввод!".


*Определитесь, кто Вы:
робот инопланетянин человек

Внимание! Время в таблицах - всемирное. Для получения местного времени необходимо прибавить поправку, которая равна 9 ч.

Смотрите также архив погоды в соседних городах и на ближайших метеорологических станциях:

Погода в Биаке (Индонезия) (78 км)
Погода в Набире (Индонезия) (182 км)
Погода в Энаротали (Индонезия) (229 км)
Погода в Маноквари (Индонезия) (266 км)
Погода в Сарми (Индонезия) (276 км)
Погода в Каимана (Индонезия) (341 км)
Погода в Коконао (Индонезия) (374 км)
Погода в Вамене (Индонезия) (389 км)
Погода в Факфаке (Индонезия) (456 км)
Погода в Сентани (Индонезия) (483 км)

Пояснения к столбцам:

Ветер - указаны скорость ветра в м/с - средняя за 10 мин, порывы в срок и между сроками (в фигурных скобках) и направление, откуда дует ветер: С - северный, СВ - северо-восточный, В - восточный, ЮВ - юго-восточный, Ю - южный, ЮЗ - юго-западный, З - западный, СЗ - северо-западный.
Видимость - горизонтальная дальность видимости в метрах или километрах. При видимости от 1 до 10 км при отсутствии осадков обычно наблюдается дымка, при ухудшении видимости до 1 км и менее - туман. В сухую погоду видимость может ухудшаться дымом, пылью или мглою.
Явления - указаны атмосферные явления, наблюдавшиеся в срок или в последний час перед сроком; фигурными скобками обозначены явления, наблюдавшиеся между сроками (за 1-3 часа до срока); квадратными скобками обозначены град или гололедные отложения с указанием их диаметра в мм.
Облачность - указаны через наклонную черту общая и нижняя облачность в баллах и высота нижней границы облаков в метрах; квадратными скобками обозначены формы облаков: Ci - перистые, Cs - перисто-слоистые, Cc - перисто-кучевые, Ac - высококучевые, As - высокослоистые, Sc - слоисто-кучевые, Ns - слоисто-дождевые, Cu - кучевые, Cb - кучево-дождевые. Подробнее классификацию облаков см. в Атласе облаков (PDF).
T - Температура воздуха - температура, измеренная на высоте 2 м над землей.
Td - Температура точки росы - температура, при понижении до которой содержащийся в воздухе водяной пар достигнет насыщения.
f - Относительная влажность воздуха - влажноcть воздуха, измеренная на высоте 2 м над землей.
Te - Эффективная температура - температура, которую ощущает одетый по сезону человек в тени. Характеристика душности погоды. При расчете учитывается влияние влажности воздуха и скорости ветра на теплоощущения человека.
Tes - Эффективная температура на солнце - температура, которую ощущает человек, с поправкой на солнечный нагрев. Характеристика знойности погоды. Зависит от высоты солнца над горизонтом, облачности и скорости ветра. Ночью, в пасмурную погоду, а также при ветре 12 м/с и более поправка равна нулю.
P - Атмосферное давление - приведенное к уровню моря атмосферное давление.
Po - Атмосферное давление - измеренное на уровне метеостанции атмосферное давление.
Tmin - Минимальная температура - минимум температуры воздуха на высоте 2 м над землей.
Tmax - Максимальная температура - максимум температуры воздуха на высоте 2 м над землей.
R - Количество осадков - Количество выпавших осадков за период времени, мм. При наведении курсора мыши на число - период времени, за который выпало указанное количество осадков.
R24 - Количество осадков - Количество выпавших осадков за 24 часа, мм.
S - Снежный покров - Высота снежного покрова, см. При наведении курсора мыши на число - состояние снежного покрова и степень покрытия местности в баллах.